Hourly Data Report for April 25, 2010

HALIFAX STANFIELD INT'L A
NOVA SCOTIA

44°52'48.060" N
63°30'00.050" W
145.40 m
8202250
71395
YHZ

Download Data

Hourly Data (April 2010)
Hourly Data Report for April 25, 2010
TIME
LST
Temp Definition
°C
Dew Point Definition
°C
Rel Hum Definition
%
Precip. Amount Definition
mm

Wind Dir Definition
10's deg

Wind Spd Definition
km/h
Visibility Definition
km
Stn Press Definition
kPa
Hmdx Definition


Wind Chill Definition


Weather Definition


00:00 4.4 1.8 83   27 6 24.1 99.33     Mainly Clear
01:00 3.7 1.3 84   28 9 24.1 99.28     Mainly Clear
02:00 3.0 1.2 88   26 4 24.1 99.24     Mostly Cloudy
03:00 2.7 1.2 90   26 7 24.1 99.16     Mostly Cloudy
04:00 1.2 0.4 94   20 7 24.1 99.05     Clear
05:00 1.0 0.3 95   18 7 24.1 98.99     Mostly Cloudy
06:00 3.6 2.7 94   18 6 24.1 98.95     Mostly Cloudy
07:00 4.8 2.7 86   17 7 24.1 98.94     Mostly Cloudy
08:00 6.2 3.3 82   20 13 24.1 98.93     Cloudy
09:00 8.6 4.9 78   23 11 24.1 98.94     Rain Showers
10:00 7.6 5.9 89   24 7 16.1 98.93     Rain Showers
11:00 10.1 7.1 82   21 9 24.1 98.88     Cloudy
12:00 11.5 2.5 54   22 19 24.1 98.77     Mostly Cloudy
13:00 11.6 3.4 57   20 28 24.1 98.72     Cloudy
14:00 9.7 2.4 60   18 20 24.1 98.67     Cloudy
15:00 10.1 2.2 58   18 24 24.1 98.58     Mostly Cloudy
16:00 9.9 2.2 59   20 26 24.1 98.49     Mostly Cloudy
17:00 10.0 2.9 61   22 26 24.1 98.46     Mainly Clear
18:00 8.5 3.4 70   20 22 24.1 98.44     Mainly Clear
19:00 6.3 3.5 82   19 15 24.1 98.43     Mainly Clear
20:00 4.0 2.7 91   20 11 24.1 98.46     Mainly Clear
21:00 3.1 2.4 95   15 7 24.1 98.45     Clear
22:00 2.7 2.6 99   18 11 4.8 98.41     Fog
23:00 3.8 3.8 100   17 9 0.4 98.38     Fog

Notes on Data Quality.

Legend

  • E = Estimated
  • M = Missing
  • NA = Not Available*
  • [empty] = Indicates an unobserved value
Date modified: